Change the Weather History Date:

Friday, October 12, 2012

  Actual Average (KABI) Record (KABI)
Temperature  
Mean Temperature 78 °F 67 °F  
Max Temperature 86 °F 79 °F 99 °F (1979)
Min Temperature 69 °F 56 °F 33 °F (1977)
Degree Days  
Heating Degree Days 0 2  
Month to date heating degree days 20  
Since 1 July heating degree days 31  
Cooling Degree Days 12 4  
Month to date cooling degree days 64  
Year to date cooling degree days 2335  
Growing Degree Days 28 (Base 50)    
Moisture  
Dew Point 65 °F    
Average Humidity 68    
Maximum Humidity 88    
Minimum Humidity 45    
Precipitation  
Precipitation 0.00 in 0.10 in 3.72 in (1981)
Month to date precipitation 1.10  
Year to date precipitation 20.30  
Sea Level Pressure  
Sea Level Pressure 30.10 in    
Wind  
Wind Speed 10 mph (South)    
Max Wind Speed 15 mph    
Max Gust Speed 24 mph    
Visibility 10 miles    
Events      
T = Trace of Precipitation, MM = Missing Value Source: NWS Daily Summary

Daily Weather History Graph

Daily Weather History Graph

Search for Another Location

Airport or City:

Trip Planner

Search our weather history database for the weather conditions in past years. The results will help you decide how hot, cold, wet, or windy it might be!

Date:

Astronomy

Oct. 12, 2012 Rise Set
Actual Time 7:37 AM CDT 7:05 PM CDT
Civil Twilight 7:13 AM CDT 7:30 PM CDT
Nautical Twilight 6:44 AM CDT 7:58 PM CDT
Astronomical Twilight 6:15 AM CDT 8:27 PM CDT
Moon 4:31 AM CDT (10/12) 5:09 PM CDT (10/12)
Length of Visible Light 12h 17m
Length of Day
11h 27m
Waning Crescent, 10% of the Moon is Illuminated
Oct 12
Waning Crescent
Oct 15
New
Oct 21
First Quarter
Oct 29
Full
Nov 6
Last Quarter

Hourly Weather History & Observations

Time (CDT) Temp. Heat Index Dew Point Humidity Pressure Visibility Wind Dir Wind Speed Gust Speed Precip Events Conditions
12:35 AM 73.4 °F - 68.0 °F 83% 30.08 in 10.0 mi SSE 11.5 mph 18.4 mph N/A   Scattered Clouds
12:55 AM 73.4 °F - 68.0 °F 83% 30.08 in 10.0 mi South 10.4 mph 17.3 mph N/A   Clear
1:15 AM 73.4 °F - 68.0 °F 83% 30.09 in 10.0 mi South 10.4 mph 16.1 mph N/A   Scattered Clouds
1:35 AM 73.4 °F - 68.0 °F 83% 30.09 in 10.0 mi South 10.4 mph 17.3 mph N/A   Mostly Cloudy
1:55 AM 75.2 °F - 68.0 °F 78% 30.09 in 10.0 mi South 10.4 mph - N/A   Overcast
2:15 AM 75.2 °F - 68.0 °F 78% 30.09 in 10.0 mi SSW 9.2 mph - N/A   Overcast
2:35 AM 73.4 °F - 68.0 °F 83% 30.09 in 10.0 mi SSW 9.2 mph - N/A   Scattered Clouds
2:55 AM 73.4 °F - 68.0 °F 83% 30.09 in 10.0 mi South 8.1 mph - N/A   Mostly Cloudy
3:15 AM 73.4 °F - 68.0 °F 83% 30.08 in 10.0 mi South 6.9 mph - N/A   Scattered Clouds
3:55 AM 73.4 °F - 68.0 °F 83% 30.09 in 10.0 mi South 5.8 mph - N/A   Scattered Clouds
4:15 AM 71.6 °F - 68.0 °F 88% 30.09 in 10.0 mi South 5.8 mph - N/A   Scattered Clouds
4:35 AM 71.6 °F - 68.0 °F 88% 30.10 in 10.0 mi South 5.8 mph - N/A   Clear
4:55 AM 71.6 °F - 68.0 °F 88% 30.09 in 10.0 mi SSE 6.9 mph - N/A   Clear
5:15 AM 71.6 °F - 68.0 °F 88% 30.09 in 10.0 mi SSE 6.9 mph - N/A   Clear
5:35 AM 71.6 °F - 68.0 °F 88% 30.09 in 10.0 mi South 8.1 mph - N/A   Clear
5:55 AM 71.6 °F - 66.2 °F 83% 30.10 in 10.0 mi South 8.1 mph - N/A   Clear
6:15 AM 71.6 °F - 66.2 °F 83% 30.11 in 10.0 mi South 10.4 mph - N/A   Clear
6:35 AM 71.6 °F - 66.2 °F 83% 30.11 in 10.0 mi South 10.4 mph - N/A   Clear
6:55 AM 69.8 °F - 66.2 °F 88% 30.11 in 10.0 mi South 10.4 mph - N/A   Scattered Clouds
7:15 AM 71.6 °F - 66.2 °F 83% 30.11 in 10.0 mi South 10.4 mph - N/A   Mostly Cloudy
7:35 AM 71.6 °F - 68.0 °F 88% 30.12 in 10.0 mi South 10.4 mph - N/A   Overcast
7:55 AM 71.6 °F - 66.2 °F 83% 30.13 in 10.0 mi South 9.2 mph - N/A   Overcast
8:15 AM 71.6 °F - 66.2 °F 83% 30.13 in 10.0 mi SSW 11.5 mph - N/A   Overcast
8:35 AM 71.6 °F - 64.4 °F 78% 30.15 in 10.0 mi SSW 9.2 mph - N/A   Overcast
9:15 AM 73.4 °F - 66.2 °F 78% 30.16 in 10.0 mi SSW 8.1 mph - N/A   Overcast
9:35 AM 73.4 °F - 66.2 °F 78% 30.16 in 10.0 mi South 11.5 mph - N/A   Overcast
9:55 AM 75.2 °F - 64.4 °F 69% 30.16 in 10.0 mi South 10.4 mph 16.1 mph N/A   Overcast
10:15 AM 77.0 °F - 64.4 °F 65% 30.16 in 10.0 mi South 15.0 mph 19.6 mph N/A   Scattered Clouds
10:35 AM 78.8 °F - 64.4 °F 61% 30.17 in 10.0 mi South 13.8 mph 20.7 mph N/A   Clear
11:15 AM 80.6 °F 82.3 °F 64.4 °F 58% 30.16 in 10.0 mi South 11.5 mph - N/A   Scattered Clouds
11:35 AM 80.6 °F 82.3 °F 64.4 °F 58% 30.16 in 10.0 mi SSW 13.8 mph 24.2 mph N/A   Overcast
12:15 PM 80.6 °F 82.3 °F 64.4 °F 58% 30.15 in 10.0 mi South 11.5 mph 17.3 mph N/A   Overcast
12:35 PM 82.4 °F 83.9 °F 64.4 °F 54% 30.14 in 10.0 mi South 10.4 mph - N/A   Mostly Cloudy
12:55 PM 84.2 °F 85.0 °F 62.6 °F 48% 30.13 in 10.0 mi South 11.5 mph - N/A   Mostly Cloudy
1:55 PM 86.0 °F 87.3 °F 64.4 °F 48% 30.11 in 10.0 mi South 10.4 mph 16.1 mph N/A   Overcast
2:15 PM 84.2 °F 85.6 °F 64.4 °F 51% 30.10 in 10.0 mi SSE 9.2 mph - N/A   Overcast
2:55 PM 84.2 °F 85.6 °F 64.4 °F 51% 30.08 in 10.0 mi South 8.1 mph - N/A   Overcast
3:15 PM 86.0 °F 87.3 °F 64.4 °F 48% 30.07 in 10.0 mi South 5.8 mph - N/A   Overcast
3:35 PM 86.0 °F 86.6 °F 62.6 °F 45% 30.07 in 10.0 mi South 12.7 mph 16.1 mph N/A   Overcast
3:55 PM 84.2 °F 85.0 °F 62.6 °F 48% 30.07 in 10.0 mi South 11.5 mph - N/A   Overcast
4:15 PM 84.2 °F 85.0 °F 62.6 °F 48% 30.06 in 10.0 mi South 10.4 mph 17.3 mph N/A   Overcast
4:35 PM 84.2 °F 85.0 °F 62.6 °F 48% 30.06 in 10.0 mi South 11.5 mph - N/A   Mostly Cloudy
5:15 PM 86.0 °F 86.6 °F 62.6 °F 45% 30.05 in 10.0 mi SSE 12.7 mph 18.4 mph N/A   Scattered Clouds
5:55 PM 84.2 °F 85.0 °F 62.6 °F 48% 30.05 in 10.0 mi SSE 9.2 mph - N/A   Clear
6:15 PM 84.2 °F 85.0 °F 62.6 °F 48% 30.05 in 10.0 mi SSE 9.2 mph - N/A   Clear
6:35 PM 84.2 °F 85.0 °F 62.6 °F 48% 30.04 in 10.0 mi SE 9.2 mph - N/A   Clear
6:55 PM 82.4 °F 82.9 °F 60.8 °F 48% 30.05 in 10.0 mi SE 6.9 mph - N/A   Clear
7:15 PM 80.6 °F 81.8 °F 62.6 °F 54% 30.04 in 10.0 mi SE 9.2 mph - N/A   Scattered Clouds
7:35 PM 78.8 °F - 62.6 °F 57% 30.04 in 10.0 mi SE 11.5 mph - N/A   Scattered Clouds
7:55 PM 78.8 °F - 62.6 °F 57% 30.04 in 10.0 mi SE 10.4 mph - N/A   Clear
8:15 PM 78.8 °F - 62.6 °F 57% 30.03 in 10.0 mi SE 12.7 mph 18.4 mph N/A   Clear
8:35 PM 78.8 °F - 62.6 °F 57% 30.04 in 10.0 mi SSE 13.8 mph 17.3 mph N/A   Clear